TimePDT,TemperatureF,Dew PointF,Humidity,Sea Level PressureIn,VisibilityMPH,Wind Direction,Wind SpeedMPH,Gust SpeedMPH,PrecipitationIn,Events,Conditions,WindDirDegrees,DateUTC
12:15 AM,59.0,51.8,77,29.95,10.0,Calm,Calm,-,N/A,,Clear,0,2011-10-01 07:15:00
12:35 AM,59.0,51.8,77,29.96,10.0,Calm,Calm,-,N/A,,Clear,0,2011-10-01 07:35:00
12:55 AM,57.2,51.8,82,29.96,10.0,SSE,3.5,-,N/A,,Clear,160,2011-10-01 07:55:00
1:15 AM,57.2,51.8,82,29.96,10.0,SE,3.5,-,N/A,,Clear,140,2011-10-01 08:15:00
1:35 AM,57.2,51.8,82,29.97,10.0,Calm,Calm,-,N/A,,Clear,0,2011-10-01 08:35:00
1:55 AM,57.2,51.8,82,29.97,10.0,SE,6.9,-,N/A,,Clear,130,2011-10-01 08:55:00
2:15 AM,57.2,51.8,82,29.98,10.0,SSE,6.9,-,N/A,,Clear,150,2011-10-01 09:15:00
2:35 AM,55.4,51.8,88,29.98,10.0,SE,6.9,-,N/A,,Clear,130,2011-10-01 09:35:00
2:55 AM,55.4,51.8,88,29.99,10.0,SE,6.9,-,N/A,,Clear,140,2011-10-01 09:55:00
3:15 AM,55.4,51.8,88,29.99,10.0,SE,8.1,-,N/A,,Clear,130,2011-10-01 10:15:00
3:35 AM,55.4,51.8,88,29.99,10.0,SE,9.2,-,N/A,,Mostly Cloudy,130,2011-10-01 10:35:00
3:55 AM,57.2,51.8,82,29.99,10.0,SE,6.9,-,N/A,,Overcast,140,2011-10-01 10:55:00
4:15 AM,57.2,51.8,82,29.99,10.0,SE,5.8,-,N/A,,Overcast,130,2011-10-01 11:15:00
4:55 AM,57.2,51.8,82,30.00,10.0,SE,5.8,-,N/A,,Overcast,130,2011-10-01 11:55:00
5:15 AM,57.2,51.8,82,30.00,10.0,SE,5.8,-,N/A,,Overcast,140,2011-10-01 12:15:00
5:35 AM,57.2,51.8,82,30.00,10.0,SSE,5.8,-,N/A,,Overcast,150,2011-10-01 12:35:00
5:55 AM,57.2,51.8,82,30.01,10.0,SE,5.8,-,N/A,,Overcast,140,2011-10-01 12:55:00
6:15 AM,57.2,51.8,82,30.01,10.0,SSE,4.6,-,N/A,,Overcast,150,2011-10-01 13:15:00
6:35 AM,57.2,51.8,82,30.02,10.0,SE,3.5,-,N/A,,Overcast,140,2011-10-01 13:35:00
6:55 AM,57.2,51.8,82,30.02,10.0,SE,5.8,-,N/A,,Overcast,130,2011-10-01 13:55:00
7:35 AM,57.2,51.8,82,30.02,10.0,ESE,5.8,-,N/A,,Overcast,120,2011-10-01 14:35:00
7:55 AM,57.2,51.8,82,30.02,10.0,SE,4.6,-,N/A,,Mostly Cloudy,130,2011-10-01 14:55:00
8:15 AM,57.2,51.8,82,30.02,10.0,Calm,Calm,-,N/A,,Scattered Clouds,0,2011-10-01 15:15:00
8:35 AM,59.0,51.8,77,30.02,10.0,SE,6.9,-,N/A,,Scattered Clouds,130,2011-10-01 15:35:00
8:55 AM,60.8,51.8,72,30.02,10.0,South,6.9,-,N/A,,Clear,170,2011-10-01 15:55:00
9:15 AM,60.8,51.8,72,30.03,10.0,South,4.6,-,N/A,,Scattered Clouds,170,2011-10-01 16:15:00
9:35 AM,60.8,51.8,72,30.04,10.0,Calm,Calm,-,N/A,,Mostly Cloudy,0,2011-10-01 16:35:00
9:55 AM,62.6,51.8,68,30.05,10.0,Calm,Calm,-,N/A,,Scattered Clouds,0,2011-10-01 16:55:00
10:15 AM,62.6,51.8,68,30.05,10.0,Calm,Calm,-,N/A,,Clear,0,2011-10-01 17:15:00
10:55 AM,64.4,51.8,64,30.06,10.0,Calm,Calm,-,N/A,,Clear,0,2011-10-01 17:55:00
11:15 AM,64.4,51.8,64,30.05,10.0,Calm,Calm,-,N/A,,Partly Cloudy,0,2011-10-01 18:15:00
11:55 AM,66.2,51.8,60,30.05,10.0,WNW,5.8,-,N/A,,Partly Cloudy,290,2011-10-01 18:55:00
12:35 PM,69.8,51.8,53,30.05,10.0,WSW,6.9,-,N/A,,Clear,240,2011-10-01 19:35:00
12:55 PM,69.8,51.8,53,30.05,10.0,SSW,5.8,-,N/A,,Clear,200,2011-10-01 19:55:00
1:15 PM,69.8,51.8,53,30.04,10.0,SSW,4.6,-,N/A,,Clear,200,2011-10-01 20:15:00
1:35 PM,69.8,51.8,53,30.04,10.0,SW,9.2,-,N/A,,Clear,230,2011-10-01 20:35:00
1:55 PM,71.6,51.8,50,30.03,10.0,SW,8.1,-,N/A,,Clear,220,2011-10-01 20:55:00
2:15 PM,71.6,51.8,50,30.03,10.0,SW,6.9,-,N/A,,Clear,220,2011-10-01 21:15:00
2:35 PM,73.4,51.8,47,30.02,10.0,WSW,6.9,-,N/A,,Clear,240,2011-10-01 21:35:00
2:55 PM,71.6,53.6,53,30.02,10.0,West,8.1,-,N/A,,Clear,270,2011-10-01 21:55:00
3:15 PM,71.6,51.8,50,30.02,10.0,Calm,Calm,-,N/A,,Clear,0,2011-10-01 22:15:00
3:35 PM,73.4,51.8,47,30.01,10.0,West,6.9,-,N/A,,Clear,260,2011-10-01 22:35:00
3:55 PM,71.6,51.8,50,30.01,10.0,SW,4.6,-,N/A,,Clear,230,2011-10-01 22:55:00
4:15 PM,71.6,51.8,50,30.01,10.0,Calm,Calm,-,N/A,,Clear,0,2011-10-01 23:15:00
4:35 PM,71.6,53.6,53,30.01,10.0,West,6.9,-,N/A,,Clear,260,2011-10-01 23:35:00
4:55 PM,71.6,53.6,53,30.00,10.0,West,6.9,-,N/A,,Clear,270,2011-10-01 23:55:00
5:15 PM,69.8,53.6,56,30.00,10.0,WSW,5.8,-,N/A,,Clear,250,2011-10-02 00:15:00
5:35 PM,69.8,53.6,56,29.99,10.0,WSW,5.8,-,N/A,,Clear,250,2011-10-02 00:35:00
5:55 PM,68.0,53.6,60,30.00,10.0,West,5.8,-,N/A,,Clear,280,2011-10-02 00:55:00
6:15 PM,66.2,53.6,64,30.00,10.0,West,4.6,-,N/A,,Clear,280,2011-10-02 01:15:00
6:35 PM,66.2,53.6,64,30.00,10.0,WNW,4.6,-,N/A,,Clear,290,2011-10-02 01:35:00
6:55 PM,66.2,53.6,64,30.00,10.0,Calm,Calm,-,N/A,,Clear,0,2011-10-02 01:55:00
7:15 PM,64.4,53.6,68,30.00,10.0,Calm,Calm,-,N/A,,Clear,0,2011-10-02 02:15:00
7:55 PM,62.6,51.8,68,30.01,10.0,Calm,Calm,-,N/A,,Clear,0,2011-10-02 02:55:00
8:15 PM,62.6,51.8,68,30.01,10.0,Calm,Calm,-,N/A,,Clear,0,2011-10-02 03:15:00
8:35 PM,62.6,51.8,68,30.02,10.0,Calm,Calm,-,N/A,,Clear,0,2011-10-02 03:35:00
8:55 PM,60.8,51.8,72,30.01,10.0,Calm,Calm,-,N/A,,Clear,0,2011-10-02 03:55:00
9:15 PM,60.8,51.8,72,30.02,10.0,Calm,Calm,-,N/A,,Clear,0,2011-10-02 04:15:00
9:35 PM,60.8,51.8,72,30.02,10.0,Calm,Calm,-,N/A,,Clear,0,2011-10-02 04:35:00
9:55 PM,60.8,51.8,72,30.02,10.0,SE,3.5,-,N/A,,Clear,130,2011-10-02 04:55:00
10:15 PM,60.8,51.8,72,30.02,10.0,Calm,Calm,-,N/A,,Clear,0,2011-10-02 05:15:00
10:35 PM,60.8,51.8,72,30.03,10.0,Calm,Calm,-,N/A,,Clear,0,2011-10-02 05:35:00
10:55 PM,60.8,51.8,72,30.03,10.0,Calm,Calm,-,N/A,,Clear,0,2011-10-02 05:55:00
11:15 PM,60.8,51.8,72,30.03,10.0,Calm,Calm,-,N/A,,Clear,0,2011-10-02 06:15:00
11:35 PM,57.2,51.8,82,30.03,10.0,Calm,Calm,-,N/A,,Clear,0,2011-10-02 06:35:00
11:55 PM,57.2,51.8,82,30.04,10.0,Calm,Calm,-,N/A,,Clear,0,2011-10-02 06:55:00